Flag for Brazil Weather past 2 weeks in Vitória, Espírito Santo, Brazil

Now
61 °F

Sunny.


Feels Like: 61 °F
Forecast: 69 / 86 °F
Wind: 3 mph from Southeast

Location: Belo Horizonte Airport

Current Time: Sep 16, 2014 at 6:58:36 AM

Latest Report: Sep 16, 2014 at 6:00 AM


Visibility: 10 mi

Pressure: 30.04 "Hg

Humidity: 63%

Dew point: 48 °F

Location of VitóriaLocation

Historic Weather in Vitória — Graph

°F

Vitória temperature yesterday

Maximum temperature yesterday: 82 °F (at 1:00 PM)
Minimum temperature yesterday: 59 °F (at 6:00 AM)
Average temperature yesterday: 71 °F

Past Weeks' High & Low Weather Summary

 TemperatureHumidityPressure
High91 °F (Sep 2, 3:00 PM)88% (Sep 3, 8:00 AM)30.33 "Hg (Sep 3, 8:00 AM)
Low52 °F (Sep 7, 3:00 AM)15% (Sep 11, 3:00 PM)29.95 "Hg (Sep 2, 3:00 PM)
Average69 °F51%30.15 "Hg
* Reported Sep 1 6:00 AM — Sep 16 6:00 AM, Vitória, Weather by CustomWeather, © 2014

Note: Actual official high and low records may vary slightly from our data, if they occured in-between our weather recording intervals... More about our weather records

Advertising

Vitória weather history for previous 24 hours

 ConditionsComfort  
Time TempWeatherWind HumidityBarometerVisibility
6:00 AM
Sep 16
61 °FSunny.3 mph63%30.04 "Hg10 mi
5:00 AM61 °FClear.2 mph68%30.04 "Hg10 mi
4:00 AM63 °FClear.2 mph59%30.01 "Hg10 mi
3:00 AM64 °FClear.5 mph56%30.04 "Hg10 mi
2:00 AM64 °FClear.2 mph52%30.04 "Hg10 mi
1:00 AM66 °FClear.3 mph49%30.07 "Hg10 mi
12:00 AM68 °FClear.No wind43%30.07 "Hg10 mi
11:00 PM
Sep 15
70 °FClear.2 mph40%30.09 "Hg10 mi
10:00 PM72 °FClear.3 mph36%30.09 "Hg10 mi
9:00 PM73 °FClear.13 mph31%30.09 "Hg10 mi
8:00 PM75 °FClear.13 mph31%30.09 "Hg10 mi
7:00 PM75 °FClear.12 mph39%30.07 "Hg10 mi
6:00 PM81 °FClear.5 mph17%30.07 "Hg10 mi
5:00 PM82 °FSunny.7 mph19%30.04 "Hg10 mi
4:00 PM82 °FSunny.6 mph25%30.04 "Hg10 mi
3:00 PM82 °FSunny.7 mph28%30.04 "Hg10 mi
2:00 PM82 °FSunny.8 mph30%30.07 "Hg10 mi
1:00 PM82 °FSunny.12 mph30%30.09 "Hg10 mi
12:00 PM79 °FSunny.6 mph32%30.15 "Hg10 mi
11:00 AM75 °FSunny.7 mph39%30.15 "Hg10 mi
10:00 AM73 °FSunny.6 mph44%30.18 "Hg10 mi
9:00 AM70 °FSunny.9 mph53%30.18 "Hg10 mi
8:00 AM64 °FSunny.3 mph68%30.18 "Hg10 mi
7:00 AM59 °FSunny.3 mph77%30.15 "Hg10 mi
6:00 AM59 °FSunny.2 mph72%30.15 "Hg10 mi
Weather by CustomWeather, © 2014

See weather overviewHow to use our weather pages